This is the latest recevied weather packets stored in our database for station/object G4KVI. If no packets are shown the sender has not sent any weather packets the latest 10 day(s).
| Time | Temp. | Humidity | Pressure | Rain* | Wind** | Luminosity | Snow |
|---|---|---|---|---|---|---|---|
| 1788057603 | 15° C | 94% | 1010.6 hPa | 0 mm | - | 0 W/m² | - |
| 1788057303 | 15° C | 94% | 1010.5 hPa | 0 mm | - | 0 W/m² | - |
| 1788057003 | 15° C | 94% | 1010.5 hPa | 0 mm | - | 0 W/m² | - |
| 1788056703 | 15° C | 94% | 1010.6 hPa | 0 mm | - | 0 W/m² | - |
| 1788056403 | 15° C | 94% | 1010.4 hPa | 0 mm | - | 0 W/m² | - |
| 1788056103 | 15° C | 94% | 1010.6 hPa | 0.51 mm | - | 0 W/m² | - |
| 1788055803 | 15.56° C | 94% | 1010.5 hPa | 0.76 mm | - | 0 W/m² | - |
| 1788055503 | 15.56° C | 94% | 1010.5 hPa | 1.27 mm | - | 0 W/m² | - |
| 1788055203 | 15.56° C | 94% | 1010.5 hPa | 1.52 mm | - | 0 W/m² | - |
| 1788054903 | 15.56° C | 94% | 1010.5 hPa | 1.52 mm | - | 0 W/m² | - |
| 1788054603 | 15.56° C | 94% | 1010.5 hPa | 1.52 mm | - | 0 W/m² | - |
| 1788054303 | 15.56° C | 94% | 1010.5 hPa | 1.52 mm | - | 0 W/m² | - |
| 1788054003 | 15.56° C | 94% | 1010.7 hPa | 1.52 mm | - | 0 W/m² | - |
| 1788053703 | 15.56° C | 94% | 1010.4 hPa | 1.52 mm | - | 0 W/m² | - |
| 1788053403 | 15.56° C | 93% | 1010.4 hPa | 1.52 mm | - | 0 W/m² | - |
| 1788053103 | 15.56° C | 93% | 1010.6 hPa | 1.52 mm | - | 0 W/m² | - |
| 1788052803 | 15.56° C | 93% | 1010.2 hPa | 1.52 mm | - | 0 W/m² | - |
| 1788052503 | 15.56° C | 93% | 1010.3 hPa | 1.02 mm | - | 0 W/m² | - |
| 1788052203 | 16.11° C | 93% | 1010.3 hPa | 0.76 mm | - | 0 W/m² | - |
| 1788051903 | 16.11° C | 93% | 1010.3 hPa | 0.25 mm | - | 0 W/m² | - |
| 1788051603 | 16.11° C | 93% | 1010.2 hPa | 0 mm | - | 0 W/m² | - |
| 1788051303 | 16.11° C | 93% | 1010.4 hPa | 0 mm | - | 0 W/m² | - |
| 1788051003 | 16.11° C | 93% | 1010.4 hPa | 0 mm | - | 0 W/m² | - |
| 1788050703 | 16.11° C | 93% | 1010.4 hPa | 0.25 mm | - | 0 W/m² | - |
| 1788050403 | 16.11° C | 92% | 1010.4 hPa | 0.25 mm | - | 0 W/m² | - |
* Rain latest hour (hover to see other rain measurements)
** Current wind speed in m/s (hover to see current wind gust speed)